EHI
3 1 0 0 0 0 0 0 0 0 0 0 0 0 0 0 0 0 0 1 1 1 1 1 0 1 4 6 4 3 3 3 2 1 0 0 0 0 0 1 1 0 0
6 2 0 0 0 0 0 0 0 0 0 0 0 0 0 0 0 0 0 0 1 1 1 2 1 2 2 2 2 1 2 2 2 1 0 0 0 0 0 1 1 0 0
6 2 0 0 0 0 0 0 0 0 0 0 0 0 0 0 0 0 0 0 1 1 2 4 4 3 1 0 0 0 1 1 2 2 1 0 0 0 0 1 1 0 0
3 2 2 1 0 0 0 0 0 0 0 0 0 0 0 0 0 0 0 0 0 1 2 3 4 3 2 1 1 0 0 0 1 1 1 0 0 0 0 0 0 0 0
6 8 9 5 1 0 0 0 0 0 0 0 0 0 0 0 0 0 0 0 0 0 1 1 1 2 2 2 1 0 0 0 0 0 1 1 0 0 0 0 0 0 0
15 17 15 8 3 0 0 0 0 0 0 0 0 0 0 0 0 0 0 0 0 0 0 0 0 1 1 1 1 0 0 0 0 0 0 1 1 0 1 1 0 0 0
22 21 16 10 5 1 0 0 0 0 0 0 0 0 0 0 0 0 0 0 0 0 0 0 0 0 0 0 0 0 0 0 0 0 1 1 1 1 1 1 0 0 0
22 22 16 10 7 4 2 1 0 0 0 0 0 0 0 0 0 0 0 0 0 0 0 0 0 0 0 0 0 0 0 0 0 1 3 3 2 2 2 1 0 0 0
18 22 18 10 7 5 4 3 2 1 1 0 0 0 0 0 0 0 0 0 0 0 0 0 0 0 0 0 0 0 0 0 0 2 5 4 3 3 2 1 0 0 0
13 15 13 9 8 7 6 4 3 3 2 1 0 0 0 0 0 0 0 0 0 0 0 0 0 0 0 0 0 0 0 0 0 2 6 6 3 2 2 1 0 0 0
12 10 7 7 9 8 8 8 6 4 4 2 1 1 0 0 0 0 2 4 3 1 0 0 0 0 0 0 0 0 0 0 1 2 6 8 5 2 1 0 0 0 0
14 11 7 8 10 10 11 12 9 7 6 4 2 1 0 0 0 1 4 8 7 3 1 0 0 0 0 0 0 0 0 0 1 3 7 11 8 3 0 0 0 0 0
11 9 8 10 11 12 12 12 12 11 10 5 2 1 2 1 1 2 5 8 6 3 1 0 0 0 0 0 0 0 0 0 1 4 9 12 9 4 1 0 0 0 0
7 6 6 7 8 10 11 11 12 11 9 6 3 2 3 3 2 3 4 4 3 1 1 0 0 0 0 0 0 0 0 0 1 4 8 11 8 4 2 1 0 0 0
5 4 3 3 4 6 8 10 10 8 6 5 4 2 1 2 1 1 1 1 1 0 0 0 0 0 0 0 0 0 0 0 1 3 6 8 7 3 1 1 1 1 0
3 3 3 3 3 3 5 7 9 8 6 6 4 1 0 0 1 1 0 0 0 0 0 0 0 0 0 0 0 0 0 0 1 3 4 5 5 3 1 1 2 2 1
3 3 3 3 3 2 3 5 7 8 8 8 5 2 1 0 0 0 0 0 0 0 0 0 0 0 0 0 0 0 0 0 1 2 3 2 2 2 2 2 2 1 0
2 2 3 3 3 2 2 3 5 6 9 11 9 5 2 1 0 1 1 1 1 1 0 0 0 0 0 0 0 0 0 0 0 1 1 1 1 1 1 2 1 0 0
1 1 1 2 2 1 1 1 2 5 9 12 12 7 3 2 2 3 4 3 3 3 2 1 1 2 1 0 0 0 0 0 0 0 0 1 1 0 0 0 0 0 0
0 0 0 1 1 1 0 0 1 4 7 10 11 8 5 4 4 5 6 5 3 3 3 3 3 3 2 0 0 0 0 0 0 0 0 0 0 0 0 0 0 0 0
0 0 0 0 0 0 0 0 0 1 4 6 7 6 6 6 5 5 7 6 3 3 3 4 4 3 2 0 0 0 0 0 0 0 0 0 0 0 0 0 0 0 0
0 0 0 0 0 0 0 0 0 0 1 2 3 5 5 5 5 5 6 6 4 2 2 3 3 2 1 0 0 0 0 0 0 0 0 0 0 0 0 0 0 0 0
0 0 0 0 0 0 0 0 0 0 0 0 2 4 5 4 4 5 8 8 5 3 1 1 1 1 0 0 0 0 0 0 0 0 0 0 0 0 0 0 0 0 0
0 0 0 0 0 0 0 0 0 0 0 0 1 3 4 3 3 5 8 9 8 5 1 0 0 0 0 0 0 0 0 0 0 0 0 0 0 0 0 0 0 0 0
0 0 0 0 0 0 0 0 0 0 0 0 1 3 4 4 3 3 4 7 7 4 1 0 0 0 0 0 0 0 0 0 0 0 0 0 0 0 0 0 0 1 1
0 0 0 0 0 0 0 0 0 0 0 0 1 4 6 5 4 2 2 4 4 2 0 0 0 1 1 1 0 0 0 0 0 0 0 0 0 0 0 0 1 2 4
Wind_Speed
12 13 12 12 11 10 10 9 9 8 7 6 6 5 5 5 5 5 5 5 5 5 4 4 5 5 6 6 6 7 7 7 7 7 7 8 8 8 8 8 5 8 9
15 14 13 12 11 11 10 9 8 8 8 7 7 6 5 5 5 4 4 4 4 4 4 4 4 5 5 5 5 6 6 5 4 4 5 7 8 8 8 10 11 6 8
16 14 12 12 11 11 10 9 8 8 8 7 7 6 6 5 5 4 4 4 4 4 4 4 4 5 5 4 5 5 5 4 3 3 1 2 6 8 8 9 9 9 8
16 13 12 13 11 10 9 9 8 8 7 7 7 6 6 5 4 4 3 3 4 4 4 4 4 4 4 4 4 3 3 3 4 4 2 3 5 8 8 8 8 8 7
14 13 13 12 11 10 9 8 8 7 7 7 6 6 5 4 4 3 3 3 3 3 3 4 4 4 3 3 2 1 1 3 5 4 4 6 5 7 8 8 8 7 7
13 14 13 12 10 9 8 8 7 7 6 6 6 5 5 4 3 3 3 3 3 3 3 3 3 3 3 2 2 0 1 3 5 1 4 5 4 6 8 8 8 8 8
13 13 12 11 10 9 8 8 7 7 6 6 6 5 5 4 4 3 3 2 2 2 2 2 2 2 2 2 2 1 2 3 4 1 5 6 5 7 7 7 7 8 8
12 13 12 12 11 9 9 8 8 7 7 7 7 6 5 5 4 4 3 3 2 2 2 2 2 2 3 2 2 3 3 5 3 2 6 6 7 7 7 7 7 8 8
9 11 12 12 11 11 10 10 9 8 8 8 7 7 6 6 5 5 5 4 3 3 2 3 3 3 3 3 3 4 4 6 4 1 6 5 7 7 7 7 7 7 8
4 6 8 9 10 10 10 12 12 11 10 9 9 8 8 7 7 7 7 6 5 5 4 4 4 4 4 4 5 5 6 5 4 2 5 6 8 8 7 7 7 7 7
6 4 3 3 5 6 9 11 12 11 10 10 9 10 8 6 7 7 10 10 8 7 6 6 6 6 6 6 7 7 6 4 3 4 5 8 9 8 7 6 7 7 7
8 8 7 5 2 1 3 6 6 6 6 7 6 7 6 6 6 7 9 12 11 9 8 8 8 7 7 5 7 8 4 6 3 5 6 10 8 8 7 6 7 7 6
8 8 9 8 7 4 2 2 2 2 3 5 7 7 7 6 4 4 5 7 7 8 6 7 7 6 7 6 5 6 6 4 2 5 6 10 9 8 7 7 7 6 6
7 8 9 9 8 7 5 2 1 2 2 3 5 7 6 4 3 4 4 6 6 5 6 6 6 9 10 9 8 8 6 3 4 5 6 10 9 8 7 7 7 7 6
6 5 5 6 6 6 6 3 2 1 2 3 3 4 5 4 4 4 4 5 6 6 6 5 7 8 7 5 5 5 5 5 7 7 6 10 9 8 8 7 7 7 6
6 6 4 5 4 4 4 4 3 2 1 1 2 4 4 3 3 3 3 3 4 4 5 5 6 4 3 2 3 3 4 3 6 9 7 8 10 9 8 8 8 7 6
6 6 5 4 3 3 3 3 3 3 3 2 2 4 3 2 3 4 3 3 3 3 3 4 5 3 3 3 2 2 3 3 4 8 9 7 6 8 8 8 8 7 7
7 7 6 6 5 4 4 4 3 3 3 3 2 2 3 4 3 3 3 2 3 2 2 2 2 1 2 2 2 3 3 3 3 5 7 9 7 7 7 9 8 7 7
7 7 7 6 5 5 4 4 4 4 4 3 3 3 3 4 4 3 3 3 3 2 2 3 2 2 2 2 2 3 3 4 4 5 5 8 9 9 7 9 9 8 7
8 8 7 6 6 5 4 3 3 3 3 3 3 4 5 4 4 3 3 4 3 2 2 2 2 2 1 2 3 3 3 3 3 4 4 4 7 9 10 8 6 6 9
9 10 9 8 7 5 3 3 3 3 3 3 4 5 6 6 6 4 4 4 4 3 3 3 2 2 2 2 1 1 1 2 3 3 3 3 5 7 11 11 8 6 5
9 9 10 8 8 7 4 4 3 4 4 4 3 5 6 7 6 6 6 5 5 4 4 4 3 2 2 2 2 2 1 2 2 3 3 2 3 4 6 9 8 9 7
9 10 10 9 9 8 7 4 4 4 4 4 4 4 5 6 7 6 6 6 6 6 5 5 5 5 3 3 3 3 4 4 2 2 4 4 3 3 3 4 6 8 10
10 10 10 10 10 8 7 5 6 5 5 5 4 4 4 5 6 7 7 7 7 6 6 7 7 5 5 4 3 2 2 3 3 2 2 3 4 4 4 3 3 4 6
10 9 9 9 9 9 8 7 6 5 5 4 5 5 5 4 5 5 6 6 6 5 6 7 6 7 6 5 4 2 2 0 1 2 2 2 1 1 2 2 2 2 4
8 8 8 8 8 8 8 7 6 6 6 6 6 5 4 3 3 4 5 5 6 5 6 7 7 8 7 6 5 4 3 2 2 2 2 2 1 1 0 1 2 1 2
Wind_Direction
121 120 126 118 113 111 111 115 123 124 124 123 120 117 111 102 92 83 76 73 69 64 59 54 58 69 68 65 61 58 54 53 54 63 73 73 67 60 46 35 64 82 83
121 123 128 123 120 118 117 117 119 122 120 119 117 116 113 108 100 94 89 84 81 75 68 65 68 77 78 73 66 59 54 52 49 59 85 86 76 65 53 52 63 79 80
120 126 131 128 127 125 124 125 123 122 122 122 121 120 118 113 106 100 97 92 87 84 80 77 79 82 83 77 68 57 44 28 4 360 8 96 88 70 62 61 69 77 79
124 136 132 133 132 131 131 132 132 129 128 126 125 124 122 117 112 108 103 96 91 89 88 89 90 90 87 83 72 56 28 352 334 340 32 83 77 74 67 64 69 76 78
126 126 127 139 138 137 137 137 136 136 135 134 133 134 132 131 125 119 114 106 96 93 89 89 97 101 100 101 91 62 328 311 323 343 72 80 75 75 70 65 67 74 80
121 121 133 142 144 146 146 146 146 148 148 149 149 148 148 147 142 135 128 119 110 101 93 96 107 118 120 119 122 142 280 291 307 7 88 93 91 80 76 71 71 75 78
127 128 140 148 152 156 159 162 164 165 166 168 166 165 165 165 164 156 150 135 123 121 112 112 129 144 148 151 161 203 258 283 273 164 105 102 101 93 84 77 75 77 81
133 137 141 156 163 168 174 176 178 180 182 183 183 181 181 180 177 175 168 153 142 130 133 145 164 170 168 175 192 218 253 281 263 147 114 110 110 100 89 81 78 77 81
128 139 151 163 172 179 184 187 189 191 193 195 194 192 193 194 195 196 190 179 170 167 169 178 190 193 193 198 206 222 247 265 280 200 124 113 112 104 95 89 84 81 83
97 130 157 168 175 180 187 193 195 196 198 201 202 202 203 204 208 209 202 195 191 192 194 196 201 207 208 210 212 223 243 271 256 138 109 115 116 111 105 101 94 88 88
33 37 73 142 167 187 188 190 193 198 201 203 206 210 209 212 209 206 215 186 191 197 203 206 210 213 214 217 219 225 238 245 222 117 105 121 123 120 116 110 104 99 94
20 14 19 14 22 193 207 168 186 191 191 204 207 200 208 224 215 209 190 180 189 198 206 214 218 221 225 218 218 223 235 236 199 123 120 129 129 130 128 122 116 109 104
14 9 4 2 359 5 16 151 178 171 185 212 220 204 211 226 206 190 168 178 191 201 208 212 217 225 223 220 196 202 222 221 153 116 129 131 132 136 136 133 127 119 114
15 7 359 359 354 349 353 352 190 176 185 211 225 217 209 223 215 196 188 183 188 197 206 196 211 220 225 215 198 203 195 178 138 121 137 139 139 141 142 141 137 130 123
10 2 355 351 353 347 343 337 331 288 218 221 218 233 214 212 221 219 205 190 196 195 195 204 216 224 221 212 203 193 186 175 140 133 139 150 148 150 151 150 145 140 134
355 350 349 341 343 339 334 329 320 314 279 256 230 246 239 212 229 235 229 200 208 214 187 194 225 231 221 212 206 183 169 167 142 142 148 154 155 156 159 161 156 153 151
342 334 334 321 332 324 314 309 308 302 295 262 245 254 258 229 221 244 240 214 213 226 222 203 229 219 208 200 199 201 169 181 157 151 152 157 161 166 167 166 164 166 165
340 332 327 328 330 316 303 292 283 275 271 263 244 244 255 254 229 235 247 233 227 217 230 210 246 220 209 202 192 201 190 165 182 160 158 162 164 168 173 174 170 171 173
336 331 332 332 322 311 301 285 270 263 259 258 248 235 241 249 246 225 231 246 241 234 228 228 216 217 220 210 214 199 191 170 186 189 186 170 162 161 165 176 173 173 176
344 341 337 326 314 308 296 292 283 265 255 252 246 235 236 239 243 233 225 232 236 228 233 239 216 224 232 217 228 211 185 178 182 189 202 167 160 165 160 165 169 180 183
349 343 336 327 324 319 309 300 298 294 286 264 245 235 229 230 224 219 222 219 211 210 216 224 224 223 230 238 216 279 226 208 200 190 195 175 179 166 157 169 176 171 177
348 342 332 332 328 324 313 303 288 286 280 266 252 242 230 229 219 217 211 208 208 205 210 209 216 221 228 229 190 170 218 287 274 205 178 197 202 161 171 174 172 167 169
348 345 338 333 329 325 320 310 303 297 288 283 264 250 234 226 222 215 213 202 206 201 200 199 201 204 213 240 219 170 167 209 238 262 201 190 204 170 186 181 174 168 166
351 347 340 339 336 331 327 318 310 296 291 292 294 281 271 246 227 218 216 209 206 201 200 202 198 196 193 222 247 226 193 160 161 232 260 203 191 186 188 183 184 172 157
351 348 343 344 343 341 335 324 314 306 300 298 299 289 277 266 249 230 218 213 209 202 204 207 202 195 192 201 216 223 232 216 180 155 225 267 274 205 168 146 137 130 133
353 352 348 348 346 343 341 338 333 324 319 316 311 304 300 278 259 245 229 217 214 205 207 205 207 202 194 198 207 208 195 183 194 167 188 212 219 279 34 93 103 104 107